Location: Lake Sonoma
(38.7200°N, 123.0564°W)
Time: 01:23:37
(UTC-07:00)

ISS - All Passes

Search period start: 27 May 2016 00:00
Search period end: 06 June 2016 00:00
Orbit: 402 x 404 km, 51.6° (Epoch: 27 May)

Date Brightness Start Highest point End Pass type
(mag) Time Alt. Az. Time Alt. Az. Time Alt. Az.
27 May - 02:29:00 10° N 02:29:23 10° N 02:29:45 10° NNE visible
27 May - 04:03:45 10° NNW 04:06:40 29° NNE 04:09:34 10° E visible
27 May - 05:40:12 10° WNW 05:43:04 29° SW 05:45:56 10° SSE daylight
27 May - 20:43:16 10° S 20:45:20 16° SE 20:47:26 10° E daylight
27 May - 22:18:20 10° WSW 22:21:30 48° NW 22:24:41 10° NE visible
27 May - 23:57:07 10° NW 23:58:35 12° NNW 00:00:02 10° N visible
28 May - 03:11:17 10° NNW 03:13:44 19° NNE 03:16:10 10° ENE visible
28 May - 04:47:12 10° WNW 04:50:26 61° SW 04:53:37 10° SE visible
28 May - 21:25:28 10° SW 21:28:44 85° SE 21:32:00 10° NE visible
28 May - 23:03:21 10° WNW 23:05:32 16° NNW 23:07:44 10° NNE visible
29 May - 02:18:56 10° NNW 02:20:43 14° NNE 02:22:31 10° NE visible
29 May - 03:54:27 10° NW 03:57:41 64° NE 04:00:55 10° ESE visible
29 May - 05:32:29 10° WSW 05:33:44 12° SW 05:34:59 10° SSW daylight
29 May - 20:32:58 10° SSW 20:36:02 39° SE 20:39:07 10° ENE daylight
29 May - 22:09:50 10° W 22:12:34 24° NNW 22:15:19 10° NNE visible
30 May - 01:26:47 10° N 01:27:39 11° NNE 01:28:30 10° NNE visible
30 May - 03:01:50 10° NW 03:04:52 34° NNE 03:07:52 10° E visible
30 May - 04:38:31 10° WNW 04:41:11 23° SW 04:43:50 10° S visible
30 May - 19:41:00 10° S 19:43:26 19° SE 19:45:52 10° E daylight
30 May - 21:16:35 10° WSW 21:19:41 40° NNW 21:22:47 10° NE visible
30 May - 22:55:39 10° NW 22:56:50 11° NNW 22:58:00 10° N visible
31 May - 02:09:20 10° NNW 02:11:57 21° NNE 02:14:33 10° E visible
31 May - 03:45:24 10° WNW 03:48:33 48° SW 03:51:42 10° SSE visible
31 May - 20:23:36 10° SW 20:26:52 78° NW 20:30:08 10° NE daylight
31 May - 22:01:46 10° WNW 22:03:45 15° NNW 22:05:46 10° NNE visible
01 Jun - 01:16:57 10° NNW 01:18:57 15° NNE 01:20:57 10° ENE visible
01 Jun - 02:52:34 10° NW 02:55:50 79° NE 02:59:04 10° SE visible
01 Jun - 19:30:59 10° SSW 19:34:09 49° SE 19:37:19 10° ENE daylight
01 Jun - 21:08:09 10° W 21:10:45 21° NNW 21:13:21 10° NNE visible
02 Jun - 00:24:41 10° N 00:25:52 11° NNE 00:27:04 10° NE visible
02 Jun - 01:59:54 10° NW 02:03:01 40° NNE 02:06:07 10° ESE visible
02 Jun - 03:36:51 10° W 03:39:16 19° SW 03:41:39 10° S night (unlit)
02 Jun - 18:38:49 10° S 18:41:29 24° SE 18:44:12 10° ENE daylight
02 Jun - 20:14:49 10° W 20:17:49 34° NNW 20:20:51 10° NE daylight
02 Jun - 21:54:12 10° NNW 21:55:02 11° NNW 21:55:54 10° N visible
03 Jun - 01:07:22 10° NNW 01:10:07 24° NNE 01:12:51 10° E visible
03 Jun - 02:43:34 10° WNW 02:46:38 38° SW 02:49:41 10° SSE night (unlit)
03 Jun - 17:47:36 10° SSE 17:48:56 12° SE 17:50:16 10° ESE daylight
03 Jun - 19:21:45 10° WSW 19:24:59 63° NW 19:28:14 10° NE daylight
03 Jun - 21:00:10 10° NW 21:01:57 14° NNW 21:03:44 10° NNE visible
04 Jun - 00:14:55 10° NNW 00:17:08 17° NNE 00:19:20 10° ENE visible
04 Jun - 01:50:40 10° NW 01:53:56 83° SW 01:57:11 10° SE visible
04 Jun - 18:29:00 10° SW 18:32:13 62° SE 18:35:27 10° ENE daylight
04 Jun - 20:06:29 10° WNW 20:08:54 19° NNW 20:11:21 10° NNE daylight
04 Jun - 23:22:36 10° N 23:24:04 12° NNE 23:25:32 10° NE visible
05 Jun - 00:57:57 10° NW 01:01:08 48° NE 01:04:18 10° ESE visible
05 Jun - 02:35:15 10° W 02:37:17 16° SW 02:39:20 10° S night (unlit)
05 Jun - 17:36:39 10° SSW 17:39:32 29° SE 17:42:26 10° ENE daylight
05 Jun - 19:13:02 10° W 19:15:57 29° NNW 19:18:52 10° NNE daylight
05 Jun - 20:52:52 10° NNW 20:53:14 10° N 20:53:37 10° N daylight
